Weather in Kos-Istek

Kazakhstan     50°44′54″N   57°53′22″E
temp.,
°C
wind,
m/s
gust,
m/s
humid.,
%
clouds,
%
prec.,
mm/h
press.,
hPa
HPBL,
m
6 may, thu
thu623:00+9wnw7135633 0.0 1012625
02:00+7nw613631 0.0 1014646
05:00+5nw512702 0.0 1016492
08:00+7nnw710639 0.0 1017809
11:00+10nw67495 0.0 10181184
14:00+13nnw674310 0.0 10181461
17:00+15nnw78385 0.0 10171556
20:00+12nnw48545 0.0 1018246
7 may, fri
fri723:00+10n476291 0.0 1019132
02:00+8ne4116852 0.0 1020224
05:00+7ne4968100 0.0 1021168
08:00+10ene585676 0.0 1021347
11:00+15e564191 0.0 10201260
14:00+18e4434100 0.0 10192035
17:00+18e5532100 0.0 10182311
20:00+14se6949100 0.0 1018341
8 may, sat
sat823:00+11sse466682 0.0 1019129
02:00+9nw11705 0.0 101911
05:00+8ne227385 0.0 101914
08:00+12ne3661100 0.0 1018326
11:00+15ene4547100 0.0 10171431
14:00+15ne3443100 0.0 10171486
17:00+16nne2342100 0.0 10171481
20:00+14nw3356100 0.0 101743
9 may, sun
sun923:00+12wnw3362100 0.0 101737
02:00+10wnw457112 0.0 101767
05:00+9wnw457118 0.0 101764
08:00+13nnw476160 0.0 1016306
11:00+17n45455 0.0 10161168
14:00+20nnw453563 0.0 10152563
17:00+19nw4537100 0.0 10151406
20:00+17nw344616 0.0 101641
10 may, mon
mon1023:00+14n33545 0.0 101730
02:00+12ene22545 0.0 101810
05:00+12w00516 0.0 101810
08:00+15nne22485 0.0 1020183
11:00+19ne343592 0.0 10201354
14:00+21nne553298 0.0 10202076
17:00+21nne453158 0.0 10202248
20:00+18n334550 0.0 102132